GW4692 Weather Reports


Display with metric or nautical units.
time (UTC)temp
F
wind
direction
speed
MPH
gust
MPH
rain 1hr
in
rain 24hr
in
rain mn
in
humidity
%
barometer
mb
20260507213040 54 36 1.0 3.0 0.00 0.05 0.05 73 1005.9
20260507211538 54 36 3.0 4.0 0.00 0.05 0.05 74 1005.9
20260507210049 54 16 1.0 2.0 0.00 0.05 0.05 73 1005.9
20260507204534 54 15 1.0 2.0 0.00 0.05 0.05 75 1005.7
20260507203044 55 261 0.0 3.0 0.00 0.05 0.05 76 1005.8
20260507201540 56 43 2.0 3.0 0.00 0.05 0.05 76 1005.6
20260507200036 57 126 1.0 2.0 0.00 0.05 0.05 76 1005.3
20260507194559 59 126 1.0 2.0 0.00 0.05 0.05 71 1005.0
20260507193035 59 126 1.0 2.0 0.00 0.05 0.05 67 1004.9
20260507191533 60 187 0.0 0.0 0.00 0.05 0.05 64 1004.6
20260507190033 61 187 0.0 1.0 0.00 0.05 0.05 63 1004.4
20260507184534 62 187 1.0 2.0 0.00 0.16 0.05 62 1004.4
20260507183035 63 187 0.0 2.0 0.00 0.16 0.05 61 1004.2
20260507181529 64 206 2.0 4.0 0.00 0.16 0.05 60 1004.2
20260507180033 65 201 2.0 4.0 0.00 0.16 0.05 60 1004.0
20260507174536 66 230 2.0 7.0 0.00 0.16 0.05 56 1003.8
20260507173035 66 202 3.0 6.0 0.00 0.16 0.05 56 1003.7
20260507171527 67 215 3.0 6.0 0.00 0.16 0.05 56 1003.7
20260507170026 68 217 1.0 7.0 0.00 0.16 0.05 50 1003.6
20260507164526 68 253 0.0 6.0 0.00 0.16 0.05 46 1003.6
20260507163026 68 249 2.0 6.0 0.00 0.16 0.05 49 1003.6
20260507161532 67 210 1.0 8.0 0.00 0.16 0.05 49 1003.6
20260507160025 69 213 2.0 8.0 0.00 0.16 0.05 52 1003.6
20260507154531 68 197 0.0 7.0 0.00 0.17 0.05 48 1003.6
20260507153035 69 139 0.0 3.0 0.00 0.17 0.05 47 1003.6
20260507151521 68 218 7.0 10.0 0.00 0.17 0.05 47 1003.6
20260507150019 68 276 3.0 8.0 0.00 0.17 0.05 49 1003.6
20260507144518 68 211 4.0 9.0 0.00 0.55 0.05 51 1003.8
20260507143022 67 230 1.0 11.0 0.00 0.55 0.05 52 1003.8
20260507141515 67 264 2.0 7.0 0.00 0.55 0.05 53 1003.9
20260507140013 66 192 0.0 5.0 0.00 0.55 0.05 54 1004.1
20260507134513 67 249 8.0 12.0 0.00 0.70 0.05 60 1004.1
20260507133011 66 271 3.0 10.0 0.00 0.70 0.05 59 1004.2
20260507131615 66 290 2.0 12.0 0.00 0.70 0.05 56 1004.3
20260507130108 66 259 9.0 13.0 0.00 0.70 0.05 63 1004.5
20260507124510 65 248 7.0 11.0 0.00 0.70 0.05 60 1004.5
20260507123005 63 219 2.0 10.0 0.00 0.70 0.05 64 1004.6
20260507121503 64 234 4.0 8.0 0.00 0.70 0.05 62 1004.6
20260507120002 63 325 3.0 7.0 0.00 0.72 0.05 64 1004.7
20260507114501 62 288 2.0 4.0 0.00 0.72 0.05 68 1004.9
20260507113002 62 277 5.0 7.0 0.00 0.72 0.05 70 1005.0
20260507111503 62 311 2.0 6.0 0.00 0.72 0.05 66 1005.2
20260507104600 63 251 0.0 7.0 0.00 0.72 0.05 66 1005.4
20260507103058 63 180 2.0 8.0 0.00 0.72 0.05 66 1005.6
20260507101557 62 359 1.0 5.0 0.00 0.72 0.05 67 1005.6
20260507100053 61 145 0.0 8.0 0.00 0.72 0.05 69 1005.7
20260507094552 61 236 4.0 10.0 0.00 0.72 0.05 70 1005.7
20260507093054 61 205 3.0 8.0 0.00 0.72 0.05 69 1005.7
20260507091548 61 238 1.0 7.0 0.00 0.72 0.05 69 1005.7
20260507090044 60 258 2.0 8.0 0.00 0.72 0.05 70 1005.7
20260507084543 59 284 1.0 7.0 0.00 0.87 0.05 70 1005.7
20260507083129 59 307 1.0 4.0 0.00 0.87 0.05 72 1005.6
20260507081524 59 47 2.0 4.0 0.00 0.87 0.05 72 1005.7
20260507080122 58 68 2.0 5.0 0.00 0.87 0.05 73 1005.6
20260507074528 58 32 1.0 5.0 0.00 0.91 0.05 77 1005.4
20260507073034 57 51 3.0 5.0 0.00 0.91 0.05 77 1005.5
20260507070059 55 13 1.0 3.0 0.00 0.91 0.05 77 1005.4
20260507063105 53 22 2.0 5.0 0.00 0.91 0.05 74 1005.0
20260507061535 52 10 1.0 4.0 0.00 0.91 0.05 72 1004.9
20260507060158 52 18 2.0 5.0 0.00 0.91 0.05 72 1004.9
20260507054528 52 332 2.0 6.0 0.00 0.92 0.05 73 1004.8
20260507053149 51 36 3.0 7.0 0.00 0.92 0.05 74 1004.5
20260507051526 50 23 3.0 7.0 0.00 0.92 0.05 72 1004.4
20260507050036 50 15 4.0 7.0 0.00 0.92 0.05 71 1004.2
20260507044600 50 22 3.0 8.0 0.00 0.94 0.05 72 1004.1
20260507043053 50 13 4.0 7.0 0.00 0.94 0.05 72 1003.9
20260507041611 50 17 4.0 7.0 0.00 0.94 0.05 71 1003.9
20260507040010 50 19 4.0 9.0 0.00 0.94 0.05 71 1003.8
20260507034512 50 28 3.0 9.0 0.02 0.95 0.05 70 1003.8
20260507033008 50 14 4.0 8.0 0.02 0.95 0.05 70 1003.9
20260507031530 50 36 6.0 9.0 0.02 0.95 0.05 70 1003.7
20260507024653 50 31 3.0 7.0 0.00 0.94 0.03 70 1003.7
20260507023044 50 48 3.0 8.0 0.00 0.94 0.03 71 1003.7
20260507021538 50 36 5.0 7.0 0.01 0.94 0.03 70 1003.7
20260507020145 50 9 3.0 4.0 0.01 0.94 0.03 70 1003.9
20260507014533 50 325 1.0 3.0 0.01 0.94 0.03 70 1003.9
20260507013056 50 32 3.0 8.0 0.02 0.94 0.02 70 1003.6
20260507011558 50 348 4.0 8.0 0.02 0.94 0.02 70 1003.6
20260507010044 50 32 5.0 7.0 0.02 0.94 0.02 70 1003.5
20260507004615 51 15 2.0 3.0 0.02 0.94 0.02 70 1003.5
20260507003153 51 38 0.0 3.0 0.01 0.93 0.01 70 1003.5
20260507001525 51 20 0.0 3.0 0.01 0.93 0.01 70 1003.5
20260507000020 51 29 2.0 6.0 0.01 0.93 0.01 70 1003.4
20260506234538 51 22 3.0 8.0 0.00 0.92 0.00 71 1003.5
20260506231602 51 11 4.0 7.0 0.00 0.92 0.00 70 1003.4
20260506231514 51 7 4.0 9.0 0.00 0.92 0.00 70 1003.4
20260506230059 51 353 5.0 8.0 0.00 0.92 0.00 70 1003.1
20260506224556 51 21 4.0 7.0 0.00 0.92 0.00 70 1003.2
20260506223021 51 40 4.0 8.0 0.00 0.92 0.00 70 1003.0
20260506221552 51 24 4.0 9.0 0.00 0.92 0.00 70 1003.1
20260506220049 51 18 5.0 9.0 0.00 0.92 0.00 70 1003.1